TimeEDT,TemperatureF,Dew PointF,Humidity,Sea Level PressureIn,VisibilityMPH,Wind Direction,Wind SpeedMPH,Gust SpeedMPH,PrecipitationIn,Events,Conditions,WindDirDegrees,DateUTC
12:09 AM,39.2,32.0,75,29.93,10.0,WNW,10.4,-,N/A,,Overcast,300,2013-05-13 04:09:00
12:26 AM,37.4,32.0,81,29.93,10.0,WNW,6.9,-,N/A,,Mostly Cloudy,290,2013-05-13 04:26:00
12:56 AM,37.9,32.0,79,29.96,10.0,WNW,9.2,-,N/A,,Overcast,300,2013-05-13 04:56:00
1:56 AM,37.9,26.1,62,29.97,10.0,West,13.8,21.9,N/A,,Mostly Cloudy,260,2013-05-13 05:56:00
2:56 AM,37.9,25.2,60,29.96,10.0,West,12.7,-,N/A,,Overcast,270,2013-05-13 06:56:00
3:56 AM,37.9,26.1,62,29.96,10.0,West,10.4,-,N/A,,Overcast,270,2013-05-13 07:56:00
4:56 AM,36.9,27.1,68,29.97,10.0,WNW,9.2,-,N/A,,Overcast,290,2013-05-13 08:56:00
5:56 AM,36.0,27.1,70,29.99,10.0,WNW,10.4,-,N/A,,Mostly Cloudy,300,2013-05-13 09:56:00
6:14 AM,37.4,26.6,65,29.97,10.0,WNW,5.8,-,N/A,,Scattered Clouds,300,2013-05-13 10:14:00
6:56 AM,36.9,26.1,65,30.01,10.0,West,9.2,-,N/A,,Mostly Cloudy,280,2013-05-13 10:56:00
7:56 AM,38.8,26.1,60,30.02,10.0,WNW,12.7,-,N/A,,Mostly Cloudy,290,2013-05-13 11:56:00
8:56 AM,39.9,26.1,58,30.03,10.0,WNW,15.0,-,N/A,,Mostly Cloudy,290,2013-05-13 12:56:00
9:56 AM,39.9,25.2,56,30.05,10.0,WNW,11.5,-,N/A,,Overcast,290,2013-05-13 13:56:00
10:56 AM,41.9,26.1,53,30.06,10.0,WNW,12.7,16.1,N/A,,Overcast,300,2013-05-13 14:56:00
11:56 AM,45.0,28.0,52,30.07,10.0,WNW,10.4,19.6,0.00,,Mostly Cloudy,300,2013-05-13 15:56:00
12:56 PM,43.0,28.0,56,30.08,10.0,NW,12.7,-,0.00,,Mostly Cloudy,310,2013-05-13 16:56:00
1:56 PM,45.0,27.1,50,30.07,10.0,NW,12.7,-,0.00,,Mostly Cloudy,310,2013-05-13 17:56:00
2:56 PM,46.9,26.1,44,30.07,10.0,NW,15.0,-,N/A,,Mostly Cloudy,310,2013-05-13 18:56:00
4:56 PM,46.9,27.1,46,30.08,10.0,NW,15.0,-,0.00,,Mostly Cloudy,320,2013-05-13 20:56:00
5:56 PM,45.0,27.1,50,30.09,10.0,WNW,8.1,-,0.00,,Mostly Cloudy,300,2013-05-13 21:56:00
6:56 PM,43.9,26.1,50,30.09,10.0,NW,12.7,-,0.00,,Scattered Clouds,320,2013-05-13 22:56:00
7:56 PM,43.9,26.1,50,30.11,10.0,West,11.5,-,N/A,,Scattered Clouds,280,2013-05-13 23:56:00
8:56 PM,37.9,27.1,65,30.12,10.0,West,4.6,-,N/A,,Scattered Clouds,280,2013-05-14 00:56:00
9:56 PM,37.9,27.1,65,30.14,10.0,West,6.9,-,N/A,,Scattered Clouds,270,2013-05-14 01:56:00
10:56 PM,36.0,28.0,73,30.15,10.0,WNW,4.6,-,N/A,,Scattered Clouds,290,2013-05-14 02:56:00
11:56 PM,34.9,28.0,76,30.15,10.0,WNW,4.6,-,N/A,,Clear,290,2013-05-14 03:56:00